Temperature
24 22 21 22 28 33 32 32 32 32 32 31 30 30 31 30 30 28 23 23 22 22 22 22 21 21 20 20 20 20 20 20 21 21 21 21 21 21 20 20 20 20 20 20 20 20 20 20 20
23 22 22 26 33 32 31 32 32 31 31 30 30 29 30 29 26 24 23 22 22 22 22 22 22 21 21 20 20 20 21 21 21 21 21 21 21 20 20 20 20 20 20 20 20 20 20 20 20
24 22 26 32 33 32 32 32 32 31 30 30 30 29 29 28 25 23 23 22 22 22 22 23 22 22 21 21 21 21 21 21 21 21 21 21 20 20 20 20 20 20 20 20 20 20 20 20 20
23 25 29 33 32 32 32 32 32 32 31 30 30 30 27 25 25 24 23 23 22 22 21 22 22 22 22 21 21 21 21 21 21 21 21 20 20 20 20 20 20 20 20 19 19 19 19 19 19
24 30 33 33 32 32 32 32 32 32 32 31 31 30 27 24 24 24 23 22 22 22 21 22 22 22 22 21 21 21 21 21 21 21 21 20 20 20 20 20 20 20 19 19 19 19 19 19 18
29 32 33 32 32 32 33 32 32 33 32 31 31 30 27 24 24 23 23 23 23 22 21 21 22 22 21 21 21 21 21 21 20 20 20 20 20 20 20 20 20 19 19 19 19 19 19 18 18
30 33 33 33 32 32 32 32 33 33 32 31 31 31 28 25 24 23 23 22 23 22 21 21 21 21 21 21 21 21 20 20 20 20 20 20 20 20 20 20 20 19 19 19 19 19 19 19 18
29 33 33 33 32 32 32 32 32 32 32 30 30 31 29 25 24 23 22 22 22 22 21 20 20 20 20 20 20 20 20 20 20 20 20 20 20 20 20 20 19 19 19 19 19 19 19 19 19
28 32 33 33 32 33 32 33 32 31 31 30 30 30 29 25 24 23 23 22 22 21 21 21 21 20 19 19 19 20 20 20 20 19 19 20 19 18 18 19 19 19 19 19 19 19 19 19 18
30 32 33 32 33 33 32 32 32 32 32 30 29 27 26 25 24 23 23 23 22 21 21 21 21 20 19 19 19 19 19 19 19 18 18 19 18 18 19 19 19 19 19 19 19 19 19 19 18
31 32 32 32 31 31 32 32 32 33 33 32 31 28 25 25 24 24 24 23 23 22 21 21 20 20 20 19 19 19 19 19 18 18 18 19 19 18 18 18 19 19 19 19 18 18 18 18 18
30 31 30 31 30 31 31 32 33 33 33 31 30 28 26 26 25 25 24 24 23 22 22 21 21 21 21 20 19 19 19 19 19 18 18 18 18 18 18 18 18 18 18 18 18 18 18 18 18
29 30 30 30 30 30 30 32 32 32 31 29 29 27 27 27 26 25 25 24 23 22 22 21 21 21 22 22 21 20 20 19 19 19 18 18 18 18 18 18 18 18 18 18 18 18 18 18 18
29 29 30 30 30 30 30 32 32 32 30 29 28 28 27 27 27 25 24 23 23 22 22 21 22 21 22 22 21 21 20 20 19 19 18 18 18 18 18 18 18 18 18 18 18 18 18 18 18
28 29 31 31 30 30 30 31 32 30 29 29 28 28 27 27 26 25 24 23 23 23 22 21 21 21 21 21 21 20 20 19 19 19 18 18 18 18 18 18 18 18 18 18 18 18 18 18 18
29 30 30 31 31 30 30 31 31 29 29 29 28 27 26 25 25 25 24 23 23 23 22 22 21 21 21 21 20 19 19 19 19 18 18 18 18 17 18 17 17 18 18 18 18 18 18 18 18
29 30 30 30 30 30 31 31 30 28 29 29 28 27 26 25 24 24 23 23 23 22 22 21 21 21 21 20 20 20 19 19 19 18 18 17 17 17 17 17 17 17 17 17 17 17 17 17 18
29 30 29 29 30 30 30 30 29 28 28 29 28 27 26 25 24 24 23 23 22 22 22 21 21 21 21 20 20 20 19 19 19 18 18 17 17 16 16 16 16 16 16 16 16 16 17 17 17
29 29 29 29 29 29 29 29 29 29 28 28 28 27 26 25 24 23 22 22 22 22 22 22 21 21 21 20 20 20 20 19 19 18 17 17 16 16 16 16 16 16 16 16 16 16 16 16 17
28 28 28 29 29 29 28 29 29 29 28 27 27 26 25 25 24 23 22 22 22 22 22 22 22 21 21 21 20 20 20 19 18 18 17 17 16 16 16 15 16 15 15 16 15 15 15 16 16
28 28 28 28 28 28 28 28 29 29 27 26 26 25 25 24 24 23 23 22 22 21 21 21 21 21 21 20 20 20 19 19 18 18 17 16 16 16 16 16 15 15 15 15 15 15 15 15 16
28 28 28 27 27 28 28 27 29 28 28 27 26 25 24 24 23 23 22 22 21 21 21 21 20 21 21 20 20 19 19 19 18 18 17 16 16 16 16 15 15 15 15 14 15 14 14 14 15
28 28 28 27 27 27 28 27 28 27 26 26 25 24 23 22 22 21 21 20 20 20 20 20 20 20 20 20 20 19 19 18 18 17 17 17 15 15 15 15 15 15 14 14 15 15 14 14 14
28 27 27 27 27 26 27 26 27 25 23 24 24 22 21 20 20 19 19 19 19 19 19 19 19 20 19 19 19 19 18 18 18 17 17 16 16 15 14 14 14 14 14 14 14 14 14 14 14
28 27 26 26 26 26 27 26 24 22 22 21 21 19 18 18 17 17 17 17 17 17 18 18 18 18 18 18 18 18 18 17 17 17 16 16 15 15 14 14 14 14 14 14 14 14 14 13 13
27 27 25 24 25 26 27 26 23 21 20 19 19 18 17 16 16 15 15 14 14 14 15 16 16 16 16 16 16 17 17 16 16 16 16 15 15 15 15 15 14 14 14 14 14 13 13 13 13
27 27 27 26 26 25 26 26 21 21 20 19 18 17 17 16 15 15 14 14 13 13 13 13 14 14 14 15 15 15 15 15 15 15 15 15 15 15 14 14 14 14 14 14 14 13 13 13 13
26 27 26 25 24 24 25 26 25 21 19 19 18 17 16 16 15 14 14 13 13 13 12 12 12 12 13 13 14 14 14 14 15 15 15 15 15 15 14 14 14 13 13 13 13 13 13 13 13
26 26 25 26 25 24 24 25 21 19 18 18 18 16 16 15 15 14 13 12 12 12 12 11 11 11 12 12 12 13 13 13 13 14 14 14 14 14 14 14 13 13 13 13 13 12 12 12 13
26 26 25 24 24 24 24 23 18 18 17 17 16 16 15 14 14 13 13 12 11 11 11 10 10 10 11 11 11 11 12 12 12 13 13 13 13 14 13 13 13 13 12 12 12 12 12 12 12
Wind_Speed
8 8 6 5 5 4 11 9 7 7 6 6 4 2 3 4 4 5 7 15 16 18 20 21 18 16 15 15 15 15 15 15 15 14 13 12 12 11 10 9 8 8 7 7 6 6 6 6 6
5 6 6 5 2 8 10 7 7 8 6 4 4 3 4 6 6 8 11 15 17 18 19 19 19 17 16 15 15 15 15 14 14 13 12 12 11 10 10 9 8 7 7 6 5 5 5 5 5
5 6 5 4 3 7 9 7 6 5 3 2 3 4 4 6 7 8 13 18 17 17 17 19 20 17 16 15 15 14 14 13 13 12 12 11 10 10 9 8 7 6 6 5 5 5 5 5 4
4 5 5 4 7 6 5 4 2 3 3 4 4 7 6 6 5 10 17 18 18 17 17 19 20 18 17 16 15 14 13 13 12 12 11 11 10 9 9 8 7 6 6 6 6 6 5 6 5
5 5 6 4 6 5 2 2 1 1 3 4 4 8 8 6 8 15 17 17 17 16 15 19 19 18 16 16 15 14 13 13 12 12 11 11 10 10 9 8 8 8 7 7 7 7 7 7 8
5 5 6 5 6 4 3 1 2 1 3 4 6 9 8 8 11 15 16 15 15 15 15 17 18 16 15 15 14 13 13 12 12 12 12 11 11 10 10 9 9 9 9 9 9 9 9 9 9
7 6 5 4 6 5 3 2 1 2 3 4 5 8 9 11 12 14 14 13 13 14 13 14 17 16 14 13 13 12 12 12 12 12 12 11 11 11 11 11 11 11 11 12 11 11 11 11 11
5 6 7 6 6 4 3 1 0 2 3 5 4 5 9 14 13 14 13 12 12 12 12 12 14 14 14 14 14 12 12 12 12 12 12 12 12 13 13 13 15 14 13 13 13 13 13 13 14
4 7 9 6 5 4 3 1 2 2 5 5 3 4 10 19 17 15 13 12 11 11 11 12 12 12 12 12 13 14 13 13 13 14 15 13 13 14 13 16 12 13 14 14 14 15 15 15 16
5 10 5 2 0 1 3 2 1 6 8 7 7 8 14 18 17 16 15 14 14 13 12 11 11 10 10 9 9 10 12 12 13 12 12 12 12 11 11 5 9 13 15 16 17 17 16 17 14
5 6 1 1 2 4 4 2 3 6 7 7 8 13 16 18 17 16 15 13 13 13 12 12 11 10 10 8 7 7 8 8 10 12 11 11 10 10 11 10 10 13 15 15 15 16 15 14 11
5 4 4 4 4 6 6 5 5 6 2 2 3 12 17 18 18 16 15 13 12 12 12 11 11 10 9 8 7 7 7 7 8 9 11 10 8 8 9 9 10 10 10 10 10 9 12 12 13
7 5 4 6 8 8 9 9 7 6 3 1 5 12 16 17 16 14 13 12 11 11 11 11 10 10 9 8 7 7 7 8 8 8 9 10 9 10 10 8 10 12 12 10 10 10 11 11 12
5 8 8 7 6 5 8 9 8 5 2 3 7 12 14 15 15 14 12 12 11 11 11 10 11 10 9 8 8 7 7 7 9 8 10 11 10 9 10 11 11 11 12 12 11 12 11 11 11
6 8 8 4 4 3 7 11 8 4 4 6 8 10 12 13 13 12 12 11 11 11 10 10 10 10 10 10 9 7 7 7 7 7 9 10 11 11 10 11 11 11 13 13 12 12 11 12 12
7 9 11 3 2 2 7 13 1 2 5 6 7 9 10 10 11 10 10 10 9 9 9 9 9 9 9 8 7 6 5 5 6 7 8 9 10 11 10 10 11 11 11 11 11 11 11 12 12
9 10 8 4 3 2 5 6 3 2 4 6 7 8 9 9 9 9 9 9 8 8 8 9 8 8 7 6 5 5 4 5 5 6 7 8 9 10 10 10 10 11 11 11 12 11 11 12 13
5 6 5 4 3 3 3 3 1 1 2 5 6 7 7 8 8 7 7 7 7 8 8 7 8 7 6 5 4 3 3 4 4 5 5 8 8 9 10 10 11 12 12 11 11 13 12 12 13
1 3 3 0 3 4 4 4 2 0 3 4 5 6 7 7 6 6 7 7 8 8 8 7 7 7 6 4 4 3 3 3 4 5 5 7 8 9 8 10 10 10 11 12 14 13 14 14 12
3 4 4 3 2 6 7 8 5 3 3 3 5 6 6 6 6 7 7 7 7 7 7 7 7 7 6 5 4 3 3 4 4 5 4 6 7 8 8 9 10 10 10 12 13 13 13 13 11
2 4 5 7 7 7 9 13 8 5 3 3 4 5 5 6 7 7 7 6 5 5 5 4 4 5 7 6 6 4 4 5 5 5 5 5 7 8 8 9 10 10 11 11 12 12 14 14 13
4 3 6 8 11 10 6 12 6 3 3 2 3 3 3 4 3 3 3 2 2 2 2 3 5 6 7 8 8 8 6 6 5 5 6 6 7 7 8 8 9 10 10 11 12 13 12 14 14
6 4 7 10 11 12 8 9 3 3 3 5 5 5 3 2 3 4 3 3 3 3 4 5 6 7 8 9 9 8 9 7 6 5 6 7 7 6 7 8 9 10 10 11 12 13 13 12 14
3 6 8 9 9 9 3 7 1 5 8 8 9 10 10 9 8 9 9 8 7 7 6 7 7 8 8 9 9 9 9 8 8 8 8 8 7 6 7 8 9 10 11 11 12 13 14 14 15
6 10 8 7 6 3 2 7 3 8 9 9 10 12 13 14 13 13 14 13 13 12 11 8 7 7 7 8 8 8 9 9 9 9 8 8 8 8 7 9 9 10 11 12 13 13 14 15 15
9 10 10 10 9 7 5 5 6 8 9 10 11 12 13 15 15 15 15 15 14 14 14 12 10 8 7 6 6 7 8 9 9 9 9 9 8 9 9 10 11 12 13 13 13 13 14 14 14
9 9 9 11 14 13 8 3 8 7 8 9 10 12 13 13 14 14 14 14 14 14 14 14 13 12 11 10 8 7 8 9 10 10 11 10 9 9 10 10 11 12 13 13 14 13 14 13 14
4 7 6 8 9 11 9 9 5 6 5 6 8 9 10 11 12 13 13 13 13 13 12 13 13 12 12 11 10 9 9 10 10 11 12 12 12 11 11 11 11 12 13 13 13 13 13 13 13
4 4 5 8 8 11 14 5 6 6 4 5 6 8 9 11 11 11 11 12 12 12 12 12 12 12 12 12 12 12 11 11 11 11 12 12 12 12 12 12 11 12 12 12 11 12 12 12 11
5 5 5 7 9 10 14 5 8 6 4 5 7 9 10 11 11 12 12 12 12 12 12 12 12 12 12 12 13 13 13 13 13 13 13 13 13 13 13 12 11 11 11 10 10 11 10 10 9
Wind_Direction
192 198 216 234 239 103 83 78 68 65 61 51 59 30 34 33 11 69 120 143 143 146 146 154 158 157 152 146 142 141 141 141 141 142 142 143 142 141 140 138 135 132 128 127 126 128 128 128 129
208 198 225 242 229 99 93 78 70 58 69 75 75 71 65 65 54 103 134 143 148 148 150 158 157 160 157 153 150 149 148 148 148 148 148 149 148 148 149 148 146 144 142 142 144 146 146 147 149
202 221 259 249 95 89 96 89 76 83 72 32 66 58 56 71 99 124 140 148 150 148 151 152 160 163 161 159 158 157 156 156 156 156 157 158 158 159 160 161 163 166 166 167 171 173 172 172 173
215 234 244 235 116 84 79 87 81 94 78 62 83 90 86 72 105 131 143 151 151 152 157 154 165 167 166 165 165 166 166 166 166 166 167 168 169 172 174 177 183 189 194 197 200 202 201 199 200
248 264 243 179 123 102 77 33 230 56 59 77 87 100 101 94 109 134 148 154 155 157 158 156 168 170 171 171 172 174 176 177 178 178 179 181 184 187 192 196 202 208 214 219 222 223 222 218 216
256 256 238 173 126 113 90 64 211 123 98 107 110 112 109 123 135 145 151 158 159 159 162 154 167 173 176 178 180 183 186 188 189 191 192 194 198 204 210 214 218 221 224 227 230 231 232 231 229
282 272 238 178 146 127 51 344 226 138 153 132 128 117 128 146 144 149 152 159 161 162 162 160 170 176 181 185 189 192 196 199 202 205 206 209 213 217 222 226 229 230 230 231 232 232 233 233 233
288 267 217 195 173 128 55 3 27 219 152 132 160 140 150 153 150 150 152 159 164 166 170 170 177 177 185 189 193 201 206 210 214 217 220 222 226 228 229 233 228 233 238 239 239 238 237 237 236
268 252 223 197 181 126 52 32 142 184 152 162 156 82 126 142 152 155 158 162 168 174 180 182 181 181 193 199 187 197 209 215 220 223 222 229 239 240 226 231 221 230 242 246 246 246 244 243 239
249 247 219 111 315 11 14 320 226 194 183 177 155 120 134 148 159 167 169 171 175 180 186 188 195 184 199 206 195 212 217 213 222 235 232 233 245 258 263 247 219 240 247 250 248 248 248 245 247
251 262 314 212 309 315 293 261 233 231 205 194 184 161 159 163 170 177 179 180 178 183 188 191 194 193 203 209 218 220 230 229 231 238 245 252 262 260 258 257 234 233 238 245 241 238 242 244 244
262 263 286 290 310 294 289 284 258 246 278 31 182 163 168 174 179 182 182 182 178 187 190 194 190 197 208 218 222 230 238 240 246 243 247 253 255 262 265 265 269 265 255 252 257 256 253 254 254
250 270 284 290 286 283 278 265 272 259 294 338 160 167 176 181 181 182 181 182 183 190 195 196 196 198 201 210 228 233 244 253 250 257 255 259 261 264 268 270 268 270 271 264 256 259 263 258 256
292 289 278 278 278 261 259 255 247 256 284 203 177 178 182 183 181 178 182 188 193 197 199 195 199 200 202 207 217 232 246 248 264 262 264 268 270 273 276 274 271 270 269 268 267 264 262 260 258
282 272 247 238 264 254 258 244 239 283 259 212 188 179 176 179 182 186 189 194 199 201 201 199 201 204 206 215 222 233 244 253 264 273 276 276 277 279 279 280 277 273 273 272 267 264 261 258 254
242 243 234 177 317 242 248 251 193 298 233 208 189 176 174 178 188 192 195 201 206 205 197 200 205 205 206 215 228 245 262 276 281 286 288 290 293 291 289 283 282 285 280 274 268 262 260 258 258
219 231 234 197 32 321 256 267 32 316 228 203 191 182 179 178 190 191 196 197 198 198 195 196 201 202 202 204 218 240 256 270 282 290 296 306 301 299 294 291 290 288 282 277 274 271 264 263 260
208 221 218 232 28 335 283 293 4 1 235 208 195 189 185 190 188 183 186 182 177 177 178 185 182 185 185 190 199 230 250 266 278 293 301 301 300 302 302 294 293 293 287 282 277 276 269 264 264
232 242 231 254 6 319 307 297 304 226 224 214 209 202 203 200 180 173 170 166 162 161 162 170 167 165 175 182 199 214 240 267 284 291 305 300 303 306 299 296 301 291 288 289 288 283 276 268 264
222 237 241 233 323 306 296 284 266 238 245 259 248 230 221 209 189 175 169 163 162 157 156 167 170 172 187 186 204 225 264 273 293 298 298 296 303 304 299 301 297 295 294 286 282 280 279 276 266
256 292 310 309 306 260 281 267 231 206 227 250 258 250 238 223 204 180 169 158 159 165 168 178 187 187 203 202 210 210 228 249 261 283 288 298 303 302 302 299 295 297 290 286 286 284 276 275 272
284 318 300 298 292 289 284 284 245 211 232 285 299 283 257 234 217 180 163 153 191 214 206 229 233 221 218 217 226 233 252 273 296 297 301 302 293 297 299 296 295 293 291 289 284 280 279 275 272
317 318 285 290 287 281 259 270 241 124 349 0 16 12 5 26 36 38 26 11 334 315 291 268 256 244 233 231 233 237 249 263 277 288 290 291 294 290 293 296 294 292 289 289 287 285 277 272 269
274 259 257 256 264 260 258 280 238 51 7 5 29 36 32 32 34 30 21 14 358 341 313 287 271 260 250 242 242 243 254 263 275 280 290 290 294 293 294 294 292 290 290 289 286 282 276 270 268
260 282 286 274 253 266 143 272 64 52 35 32 39 43 40 39 37 34 28 23 17 9 355 335 312 293 277 260 255 252 256 260 259 269 277 284 294 298 303 302 297 294 292 291 289 284 279 274 269
296 288 282 291 296 296 246 263 103 81 65 57 54 51 46 44 41 39 34 30 26 23 17 10 0 348 334 309 292 280 271 266 265 262 276 281 285 293 303 296 292 292 292 291 289 285 280 275 272
295 279 294 284 277 278 274 170 131 108 76 62 55 50 45 40 36 33 30 26 24 22 20 18 15 11 4 353 339 316 297 284 281 277 265 269 271 279 282 287 289 291 292 292 291 286 284 280 274
307 306 278 273 282 284 275 253 198 122 70 58 48 41 35 29 25 22 19 17 15 13 14 13 12 9 3 359 350 340 324 307 293 283 278 274 272 271 273 277 283 288 293 295 295 295 292 288 283
286 263 284 280 285 288 289 300 71 86 65 32 29 22 14 8 5 4 4 2 1 1 2 2 1 359 357 354 347 340 333 325 314 298 287 277 270 266 265 270 278 285 293 298 299 300 303 300 297
274 296 286 286 286 278 282 291 85 80 57 21 2 358 353 347 345 346 347 348 348 348 347 347 345 345 343 342 340 337 333 331 324 316 305 291 276 266 262 264 270 279 289 295 298 303 310 312 311
Height
1509 1508 1509 1512 1504 1492 1500 1497 1494 1494 1494 1498 1499 1499 1498 1500 1502 1512 1517 1518 1520 1523 1524 1526 1529 1532 1535 1538 1540 1543 1544 1546 1548 1549 1550 1551 1552 1553 1554 1555 1555 1556 1557 1557 1558 1558 1559 1559 1559
1511 1510 1512 1509 1493 1502 1506 1498 1497 1498 1500 1502 1502 1502 1502 1505 1510 1513 1515 1518 1521 1524 1525 1527 1530 1533 1536 1539 1541 1543 1545 1547 1548 1550 1551 1552 1553 1554 1554 1555 1556 1557 1557 1558 1558 1559 1559 1559 1560
1511 1511 1512 1497 1493 1501 1503 1498 1499 1501 1502 1502 1503 1504 1505 1509 1513 1515 1517 1519 1522 1525 1527 1528 1531 1534 1537 1539 1542 1544 1546 1547 1549 1550 1551 1552 1553 1554 1555 1555 1556 1556 1557 1558 1558 1558 1559 1559 1559
1513 1513 1508 1495 1498 1499 1498 1498 1500 1499 1502 1504 1503 1506 1510 1514 1515 1516 1517 1520 1524 1525 1528 1529 1532 1534 1537 1540 1542 1544 1546 1547 1549 1550 1551 1552 1553 1553 1554 1555 1555 1556 1556 1556 1557 1557 1557 1558 1558
1514 1509 1498 1495 1497 1499 1499 1500 1501 1499 1501 1503 1504 1506 1512 1516 1516 1517 1519 1522 1525 1528 1530 1530 1532 1535 1538 1540 1542 1544 1546 1547 1549 1550 1551 1552 1552 1553 1553 1554 1554 1554 1555 1555 1555 1556 1556 1556 1556
1513 1503 1497 1499 1500 1499 1499 1501 1500 1499 1502 1505 1505 1507 1514 1517 1518 1519 1522 1524 1528 1529 1532 1531 1533 1535 1538 1540 1542 1544 1546 1547 1548 1549 1550 1551 1551 1552 1552 1553 1553 1553 1553 1553 1553 1553 1554 1554 1554
1511 1500 1496 1497 1501 1500 1500 1500 1499 1499 1502 1504 1506 1507 1514 1518 1519 1521 1523 1526 1529 1531 1533 1533 1534 1536 1538 1540 1542 1544 1545 1547 1548 1549 1549 1550 1551 1551 1551 1551 1551 1551 1551 1551 1551 1551 1551 1552 1552
1511 1501 1497 1497 1500 1501 1501 1500 1500 1500 1502 1506 1507 1507 1511 1517 1519 1521 1523 1526 1529 1531 1533 1534 1536 1537 1539 1540 1542 1544 1545 1546 1547 1548 1548 1549 1549 1549 1549 1549 1549 1549 1549 1549 1549 1549 1549 1549 1549
1511 1504 1498 1496 1498 1499 1500 1499 1501 1502 1503 1506 1507 1508 1511 1514 1518 1521 1524 1526 1528 1530 1533 1535 1537 1538 1540 1542 1542 1543 1544 1545 1545 1546 1546 1547 1548 1549 1548 1547 1547 1546 1546 1546 1546 1546 1546 1546 1546
1509 1501 1496 1499 1499 1499 1501 1501 1500 1499 1501 1504 1507 1510 1511 1514 1517 1521 1523 1525 1527 1529 1531 1533 1536 1537 1539 1541 1542 1542 1544 1544 1544 1546 1546 1546 1546 1547 1547 1546 1544 1544 1543 1543 1543 1543 1542 1542 1543
1506 1501 1500 1502 1503 1502 1500 1499 1499 1497 1495 1500 1504 1508 1511 1514 1517 1520 1523 1525 1526 1528 1530 1532 1533 1535 1537 1539 1541 1542 1543 1543 1543 1543 1543 1543 1543 1543 1543 1543 1542 1540 1540 1540 1540 1539 1539 1539 1540
1508 1505 1506 1504 1504 1503 1501 1499 1498 1497 1496 1500 1503 1506 1509 1512 1515 1518 1521 1524 1526 1527 1529 1531 1532 1533 1534 1536 1538 1539 1540 1541 1541 1541 1540 1540 1540 1539 1539 1539 1539 1538 1537 1536 1536 1536 1536 1535 1535
1508 1505 1506 1505 1504 1503 1502 1499 1499 1497 1499 1501 1503 1505 1507 1511 1514 1518 1520 1523 1524 1526 1528 1529 1530 1531 1532 1534 1535 1536 1537 1539 1538 1537 1537 1536 1536 1536 1536 1534 1533 1533 1532 1532 1531 1530 1530 1529 1529
1508 1507 1505 1504 1502 1502 1501 1498 1498 1497 1500 1501 1502 1504 1507 1510 1513 1516 1518 1521 1522 1524 1526 1528 1528 1529 1531 1532 1533 1534 1535 1535 1535 1535 1535 1533 1532 1531 1531 1529 1528 1527 1526 1526 1525 1525 1524 1524 1523
1509 1505 1500 1499 1500 1500 1500 1496 1496 1498 1499 1500 1501 1503 1506 1509 1512 1515 1517 1519 1521 1523 1525 1525 1526 1528 1529 1530 1531 1532 1533 1533 1533 1532 1531 1530 1529 1528 1526 1524 1523 1522 1521 1520 1519 1518 1518 1517 1517
1504 1502 1500 1496 1498 1498 1500 1495 1493 1498 1498 1499 1500 1503 1505 1508 1511 1513 1516 1517 1520 1522 1522 1523 1525 1526 1527 1528 1530 1531 1531 1531 1531 1530 1529 1527 1525 1524 1522 1520 1518 1517 1515 1514 1513 1512 1512 1511 1511
1501 1500 1498 1497 1497 1496 1495 1493 1496 1498 1497 1498 1500 1502 1505 1507 1510 1512 1514 1515 1517 1518 1519 1521 1522 1524 1525 1526 1528 1529 1529 1528 1528 1528 1527 1524 1522 1520 1518 1516 1514 1512 1510 1509 1508 1507 1506 1505 1504
1501 1499 1501 1500 1498 1496 1495 1495 1496 1498 1497 1497 1500 1502 1504 1506 1509 1510 1512 1514 1515 1516 1517 1519 1520 1522 1523 1525 1526 1527 1527 1527 1526 1525 1523 1520 1518 1516 1513 1512 1510 1508 1506 1505 1503 1501 1500 1499 1498
1502 1502 1502 1501 1499 1498 1498 1496 1495 1497 1497 1497 1499 1501 1503 1506 1508 1509 1510 1512 1513 1514 1516 1518 1519 1520 1522 1524 1525 1526 1526 1525 1524 1522 1519 1516 1514 1511 1509 1507 1505 1503 1502 1500 1498 1497 1495 1493 1493
1502 1504 1502 1500 1499 1499 1499 1496 1493 1496 1497 1498 1499 1500 1503 1505 1507 1508 1510 1511 1513 1514 1516 1517 1518 1520 1521 1522 1523 1523 1523 1522 1521 1518 1515 1512 1510 1507 1506 1503 1501 1499 1496 1494 1492 1491 1489 1488 1488
1503 1503 1503 1504 1499 1497 1499 1496 1491 1493 1497 1499 1499 1501 1502 1504 1506 1508 1510 1511 1513 1514 1515 1517 1518 1519 1519 1520 1520 1520 1519 1518 1518 1516 1513 1509 1506 1503 1501 1499 1496 1494 1492 1490 1487 1485 1484 1482 1481
1505 1501 1503 1504 1504 1499 1499 1504 1489 1490 1494 1497 1499 1501 1502 1505 1506 1508 1510 1511 1513 1514 1514 1515 1516 1516 1517 1517 1518 1518 1517 1516 1515 1512 1510 1506 1503 1500 1497 1495 1492 1490 1488 1485 1483 1481 1478 1476 1475
1502 1502 1502 1502 1502 1503 1497 1501 1491 1492 1498 1498 1500 1503 1504 1505 1507 1508 1510 1511 1512 1513 1514 1514 1514 1514 1514 1514 1514 1514 1513 1513 1511 1508 1506 1502 1500 1497 1494 1491 1489 1486 1483 1480 1477 1475 1472 1470 1468
1502 1503 1501 1499 1498 1507 1499 1504 1499 1502 1508 1505 1505 1507 1508 1508 1508 1509 1510 1510 1511 1511 1511 1511 1511 1510 1510 1510 1509 1509 1509 1508 1506 1504 1502 1500 1498 1495 1492 1488 1485 1482 1479 1476 1473 1469 1466 1463 1461
1501 1506 1512 1510 1506 1503 1496 1502 1507 1512 1514 1513 1512 1513 1512 1511 1511 1510 1510 1509 1508 1508 1507 1507 1506 1505 1505 1504 1504 1503 1503 1502 1501 1500 1498 1496 1494 1491 1488 1485 1481 1478 1475 1471 1468 1464 1460 1457 1454
1500 1504 1516 1523 1514 1501 1494 1498 1508 1514 1517 1518 1517 1517 1516 1515 1514 1513 1512 1511 1509 1507 1505 1503 1502 1501 1500 1499 1498 1497 1497 1497 1497 1495 1493 1491 1489 1487 1483 1480 1477 1474 1470 1466 1462 1458 1454 1451 1448
1501 1498 1494 1503 1502 1505 1496 1496 1512 1514 1517 1519 1520 1519 1519 1519 1518 1516 1515 1513 1511 1509 1506 1504 1501 1499 1497 1496 1494 1493 1492 1491 1490 1488 1487 1486 1483 1481 1478 1475 1472 1469 1466 1462 1457 1453 1449 1445 1441
1502 1498 1501 1503 1514 1513 1499 1495 1495 1510 1516 1519 1521 1522 1522 1521 1520 1518 1516 1514 1512 1510 1507 1504 1501 1499 1496 1494 1492 1490 1488 1486 1484 1482 1481 1479 1477 1475 1473 1471 1468 1465 1461 1457 1453 1449 1444 1440 1436
1501 1501 1502 1499 1502 1512 1509 1500 1508 1514 1519 1520 1522 1523 1523 1522 1520 1519 1517 1514 1512 1509 1506 1503 1500 1497 1494 1492 1489 1486 1484 1481 1479 1477 1475 1473 1471 1469 1467 1465 1463 1460 1457 1453 1449 1444 1440 1435 1431
1499 1499 1501 1509 1506 1501 1504 1504 1514 1517 1520 1523 1523 1523 1523 1522 1520 1518 1515 1512 1509 1506 1503 1500 1497 1494 1491 1488 1485 1482 1479 1476 1473 1471 1468 1466 1464 1462 1461 1459 1457 1455 1452 1449 1445 1440 1436 1432 1427